User: anonymous   Login
Location: Caltech
(34.1382°N, 118.1253°W)
Time: 03:47:51
(UTC-08:00)
Language:

Cosmos 2237 Rocket - Orbit

View from above orbital plane
View from above orbital plane
View from above satellite
View from above satellite

Ground track
Ground track

The orbit data is extracted from the following two-line orbital elements,

1 22566U 93016B   16039.19548996  .00000061  00000-0  56060-4 0  9998
2 22566  71.0085  25.9151 0010055 180.1078 180.0044 14.14924646181258
Epoch (UTC): 08 February 2016 04:41:30
Eccentricity: 0.0010055
inclination: 71.0085°
perigee height: 835 km
apogee height: 850 km
right ascension of ascending node: 25.9151°
argument of perigee: 180.1078°
revolutions per day: 14.14924646
mean anomaly at epoch: 180.0044°
orbit number at epoch: 18125

The dashed part of the orbit path shows where the satellite is in the earth's shadow,  

DLR